EN

Hourly Weather Lacha

Today, 3 August, Tuesday

Time Temperature Precipitation Wind Pressure Humidity
00:00 +14°C° 0 mm 3 mps 747 mmHg 70%
01:00 +14°C° 0 mm 3 mps 748 mmHg 70%
02:00 +13°C° 0 mm 3 mps 748 mmHg 74%
03:00 +12°C° 0 mm 3 mps 748 mmHg 78%
04:00 +12°C° 0 mm 3 mps 748 mmHg 82%
05:00 +13°C° 0 mm 4 mps 748 mmHg 77%
06:00 +15°C° 0 mm 4 mps 749 mmHg 73%
07:00 +16°C° 0 mm 5 mps 749 mmHg 69%
08:00 +19°C° 0 mm 5 mps 749 mmHg 64%
09:00 +20°C° 0 mm 5 mps 749 mmHg 58%
10:00 +21°C° 0 mm 5 mps 749 mmHg 53%
11:00 +22°C° 0.1 mm 5 mps 749 mmHg 53%
12:00 +22°C° 0.1 mm 5 mps 749 mmHg 53%
13:00 +22°C° 0.1 mm 4 mps 749 mmHg 53%
14:00 +21°C° 0.1 mm 3 mps 749 mmHg 57%
15:00 +21°C° 0.1 mm 2 mps 749 mmHg 61%
16:00 +21°C° 0.1 mm 1 mps 749 mmHg 65%
17:00 +21°C° 0 mm 1 mps 749 mmHg 66%
18:00 +20°C° 0 mm 1 mps 749 mmHg 67%
19:00 +19°C° 0 mm 1 mps 749 mmHg 68%
20:00 +19°C° 0 mm 1 mps 750 mmHg 70%
21:00 +18°C° 0 mm 1 mps 750 mmHg 71%
22:00 +16°C° 0 mm 1 mps 750 mmHg 72%
23:00 +15°C° 0 mm 1 mps 750 mmHg 74%

Tomorrow, 4 August, Wednesday

Time Temperature Precipitation Wind Pressure Humidity
00:00 +15°C° 0 mm 1 mps 750 mmHg 76%
01:00 +14°C° 0 mm 1 mps 750 mmHg 77%
02:00 +14°C° 0 mm 1 mps 750 mmHg 78%
03:00 +14°C° 0 mm 1 mps 750 mmHg 79%
04:00 +13°C° 0 mm 1 mps 750 mmHg 79%
05:00 +15°C° 0 mm 1 mps 751 mmHg 76%
06:00 +15°C° 0 mm 0 mps 751 mmHg 73%
07:00 +16°C° 0 mm 0 mps 751 mmHg 70%
08:00 +17°C° 0 mm 0 mps 751 mmHg 67%
09:00 +20°C° 0 mm 1 mps 751 mmHg 64%
10:00 +21°C° 0 mm 1 mps 751 mmHg 61%
11:00 +22°C° 0.1 mm 1 mps 751 mmHg 60%
12:00 +22°C° 0.1 mm 1 mps 750 mmHg 59%
13:00 +22°C° 0.1 mm 1 mps 750 mmHg 58%
14:00 +21°C° 0.8 mm 1 mps 750 mmHg 68%
15:00 +20°C° 0.8 mm 1 mps 750 mmHg 77%
16:00 +17°C° 0.8 mm 2 mps 750 mmHg 86%
17:00 +18°C° 0.2 mm 1 mps 750 mmHg 88%
18:00 +18°C° 0.2 mm 1 mps 750 mmHg 89%
19:00 +16°C° 0.2 mm 1 mps 750 mmHg 90%
20:00 +16°C° 0 mm 1 mps 750 mmHg 89%
21:00 +16°C° 0 mm 1 mps 750 mmHg 89%
22:00 +15°C° 0 mm 0 mps 750 mmHg 88%
23:00 +16°C° 0 mm 1 mps 750 mmHg 88%

Day after tomorrow, 5 August, Thursday

Time Temperature Precipitation Wind Pressure Humidity
00:00 +15°C° 0 mm 1 mps 750 mmHg 88%
01:00 +15°C° 0 mm 1 mps 750 mmHg 89%
02:00 +15°C° 0 mm 1 mps 750 mmHg 89%
03:00 +15°C° 0 mm 1 mps 750 mmHg 89%
04:00 +15°C° 0 mm 1 mps 750 mmHg 89%
05:00 +16°C° 0 mm 1 mps 749 mmHg 86%
06:00 +16°C° 0 mm 2 mps 749 mmHg 82%
07:00 +17°C° 0 mm 2 mps 749 mmHg 79%
08:00 +19°C° 0 mm 2 mps 749 mmHg 71%
09:00 +21°C° 0 mm 2 mps 749 mmHg 64%
10:00 +23°C° 0 mm 2 mps 749 mmHg 56%
11:00 +24°C° 0.1 mm 3 mps 749 mmHg 55%
12:00 +24°C° 0.1 mm 3 mps 749 mmHg 53%
13:00 +24°C° 0.1 mm 3 mps 748 mmHg 52%
14:00 +24°C° 0.2 mm 3 mps 748 mmHg 58%
15:00 +22°C° 0.2 mm 3 mps 748 mmHg 64%
16:00 +21°C° 0.2 mm 3 mps 748 mmHg 70%
17:00 +20°C° 0.1 mm 2 mps 747 mmHg 73%
18:00 +19°C° 0.1 mm 2 mps 747 mmHg 76%
19:00 +18°C° 0.1 mm 2 mps 747 mmHg 79%
20:00 +18°C° 0 mm 2 mps 747 mmHg 82%
21:00 +17°C° 0 mm 3 mps 746 mmHg 84%
22:00 +16°C° 0 mm 3 mps 746 mmHg 87%
23:00 +16°C° 0 mm 3 mps 745 mmHg 87%

6 August, Friday

Time Temperature Precipitation Wind Pressure Humidity
00:00 +15°C° 0 mm 4 mps 745 mmHg 86%
01:00 +15°C° 0 mm 4 mps 745 mmHg 86%
02:00 +15°C° 0 mm 4 mps 745 mmHg 86%
03:00 +15°C° 0 mm 5 mps 744 mmHg 85%
04:00 +14°C° 0 mm 5 mps 744 mmHg 85%
05:00 +14°C° 0.4 mm 5 mps 743 mmHg 87%
06:00 +14°C° 0.4 mm 5 mps 743 mmHg 89%
07:00 +13°C° 0.4 mm 5 mps 743 mmHg 91%
08:00 +13°C° 1.6 mm 5 mps 743 mmHg 93%
09:00 +13°C° 1.6 mm 4 mps 743 mmHg 94%
10:00 +13°C° 1.6 mm 4 mps 743 mmHg 95%
11:00 +13°C° 0.8 mm 4 mps 743 mmHg 95%
12:00 +13°C° 0.8 mm 4 mps 743 mmHg 95%
13:00 +13°C° 0.8 mm 3 mps 743 mmHg 95%
14:00 +13°C° 0.3 mm 3 mps 744 mmHg 95%
15:00 +13°C° 0.3 mm 3 mps 744 mmHg 95%
16:00 +14°C° 0.3 mm 2 mps 744 mmHg 95%
17:00 +14°C° 0 mm 2 mps 744 mmHg 95%
18:00 +14°C° 0 mm 2 mps 744 mmHg 95%
19:00 +14°C° 0 mm 2 mps 745 mmHg 95%
20:00 +14°C° 0 mm 2 mps 745 mmHg 95%
21:00 +13°C° 0 mm 2 mps 745 mmHg 95%
22:00 +13°C° 0 mm 2 mps 745 mmHg 95%
23:00 +13°C° 0 mm 2 mps 745 mmHg 95%

7 August, Saturday

Time Temperature Precipitation Wind Pressure Humidity
00:00 +13°C° 0 mm 2 mps 745 mmHg 95%
01:00 +12°C° 0 mm 2 mps 745 mmHg 94%
02:00 +12°C° 0 mm 2 mps 745 mmHg 95%
03:00 +12°C° 0 mm 2 mps 746 mmHg 95%
04:00 +12°C° 0 mm 2 mps 746 mmHg 96%
05:00 +12°C° 0 mm 3 mps 746 mmHg 92%
06:00 +14°C° 0 mm 3 mps 746 mmHg 88%
07:00 +16°C° 0 mm 3 mps 746 mmHg 84%
08:00 +18°C° 0 mm 3 mps 746 mmHg 73%
09:00 +20°C° 0 mm 3 mps 747 mmHg 63%
10:00 +22°C° 0 mm 3 mps 747 mmHg 52%
11:00 +24°C° 0 mm 3 mps 747 mmHg 49%
12:00 +25°C° 0 mm 3 mps 747 mmHg 45%
13:00 +26°C° 0 mm 3 mps 747 mmHg 42%
14:00 +26°C° 0 mm 3 mps 747 mmHg 42%
15:00 +26°C° 0 mm 3 mps 747 mmHg 43%
16:00 +26°C° 0 mm 3 mps 747 mmHg 43%
17:00 +25°C° 0 mm 3 mps 747 mmHg 51%
18:00 +23°C° 0 mm 2 mps 748 mmHg 58%
19:00 +20°C° 0 mm 2 mps 748 mmHg 66%
20:00 +20°C° 0 mm 2 mps 748 mmHg 67%
21:00 +20°C° 0 mm 2 mps 748 mmHg 67%
22:00 +19°C° 0 mm 2 mps 748 mmHg 68%
23:00 +19°C° 0 mm 3 mps 748 mmHg 71%

8 August, Sunday

Time Temperature Precipitation Wind Pressure Humidity
00:00 +18°C° 0 mm 3 mps 749 mmHg 73%
01:00 +18°C° 0 mm 3 mps 749 mmHg 76%
02:00 +18°C° 0 mm 3 mps 748 mmHg 78%
03:00 +17°C° 0 mm 3 mps 748 mmHg 80%
04:00 +17°C° 0 mm 4 mps 748 mmHg 82%
05:00 +18°C° 0 mm 4 mps 748 mmHg 77%
06:00 +20°C° 0 mm 4 mps 748 mmHg 73%
07:00 +21°C° 0 mm 5 mps 748 mmHg 69%
08:00 +22°C° 0 mm 5 mps 748 mmHg 67%
09:00 +23°C° 0 mm 5 mps 748 mmHg 65%
10:00 +25°C° 0 mm 5 mps 747 mmHg 64%
11:00 +23°C° 0.1 mm 4 mps 748 mmHg 68%
12:00 +22°C° 0.1 mm 4 mps 748 mmHg 72%
13:00 +21°C° 0.1 mm 4 mps 748 mmHg 77%
14:00 +21°C° 0 mm 4 mps 748 mmHg 77%
15:00 +21°C° 0 mm 5 mps 749 mmHg 78%
16:00 +21°C° 0 mm 5 mps 749 mmHg 78%
17:00 +20°C° 0 mm 4 mps 749 mmHg 78%
18:00 +20°C° 0 mm 3 mps 750 mmHg 78%
19:00 +19°C° 0 mm 2 mps 750 mmHg 78%
20:00 +18°C° 0.1 mm 2 mps 751 mmHg 83%
21:00 +17°C° 0.1 mm 3 mps 751 mmHg 87%
22:00 +17°C° 0.1 mm 3 mps 752 mmHg 92%
23:00 +16°C° 0 mm 3 mps 752 mmHg 92%
Show more